Weather History for Lancaster, CA

Change the Weather History Date:

Thursday, May 16, 2013

  Actual Average Record
Temperature  
Mean Temperature 71 °F 68 °F  
Max Temperature 81 °F 82 °F 101 °F (2009)
Min Temperature 60 °F 54 °F 42 °F (1955)
Degree Days  
Heating Degree Days 0    
Month to date heating degree days 29  
Since 1 July heating degree days 2714  
Cooling Degree Days 6    
Month to date cooling degree days 90  
Year to date cooling degree days 180  
Growing Degree Days 20 (Base 50)    
Moisture  
Dew Point 37 °F    
Average Humidity 33    
Maximum Humidity 46    
Minimum Humidity 20    
Precipitation  
Precipitation 0.00 in 0.00 in 0.05 in (1962)
Month to date precipitation 0.15 0.06  
Year to date precipitation 1.10 4.83  
Since 1 July precipitation 1.26 7.30  
Snow  
Snow 0.00 in - 0.00 in ()
Month to date snowfall 0.0  
Since 1 July snowfall 0.0  
Snow Depth 0.00 in    
Sea Level Pressure  
Sea Level Pressure 29.87 in    
Wind  
Wind Speed 26 mph (West)    
Max Wind Speed 39 mph    
Max Gust Speed 45 mph    
Visibility 10 miles    
Events      
T = Trace of Precipitation, MM = Missing Value Source: NWS Daily Summary

Daily Weather History Graph

Daily Weather History Graph

Search for Another Location

Airport:

Trip Planner

Search our weather history database for the weather conditions in past years. The results will help you decide how hot, cold, wet, or windy it might be!

Date:

Astronomy

May. 16, 2013 Rise Set
Actual Time 5:48 AM PDT 7:50 PM PDT
Civil Twilight 5:20 AM PDT 8:18 PM PDT
Nautical Twilight 4:46 AM PDT 8:52 PM PDT
Astronomical Twilight 4:10 AM PDT 9:29 PM PDT
Moon 11:22 AM PDT (5/16) 12:17 AM PDT (5/16)
Length of Visible Light 14h 57m
Length of Day
14h 01m
Waxing Crescent, 36% of the Moon is Illuminated
May 16
Waxing Crescent
May 17
First Quarter
May 24
Full
May 31
Last Quarter
Jun 8
New

Hourly Weather History & Observations

Time (PDT) Temp. Dew Point Humidity Pressure Visibility Wind Dir Wind Speed Gust Speed Precip Events Conditions
12:56 AM 66.9 °F 39.9 °F 37% 29.88 in 10.0 mi West 27.6 mph 35.7 mph N/A   Clear
1:56 AM 66.0 °F 39.0 °F 37% 29.86 in 10.0 mi West 27.6 mph 36.8 mph N/A   Clear
2:56 AM 64.0 °F 37.0 °F 37% 29.87 in 10.0 mi West 24.2 mph 33.4 mph N/A   Clear
3:56 AM 64.0 °F 36.0 °F 35% 29.86 in 10.0 mi West 18.4 mph - N/A   Clear
4:56 AM 63.0 °F 35.1 °F 35% 29.86 in 10.0 mi WSW 11.5 mph 24.2 mph N/A   Clear
5:56 AM 63.0 °F 35.1 °F 35% 29.87 in 10.0 mi West 21.9 mph 29.9 mph N/A   Clear
6:56 AM 64.9 °F 36.0 °F 34% 29.88 in 10.0 mi West 19.6 mph - N/A   Clear
7:56 AM 68.0 °F 34.0 °F 28% 29.88 in 10.0 mi West 27.6 mph 33.4 mph N/A   Clear
8:56 AM 72.0 °F 35.1 °F 26% 29.88 in 10.0 mi West 24.2 mph 33.4 mph N/A   Clear
9:56 AM 73.0 °F 36.0 °F 26% 29.88 in 10.0 mi West 27.6 mph 35.7 mph N/A   Clear
10:56 AM 75.0 °F 36.0 °F 24% 29.88 in 10.0 mi West 29.9 mph 38.0 mph N/A   Clear
11:56 AM 79.0 °F 35.1 °F 20% 29.86 in 10.0 mi West 31.1 mph 36.8 mph N/A   Clear
12:56 PM 80.1 °F 36.0 °F 20% 29.86 in 10.0 mi West 31.1 mph 39.1 mph N/A   Clear
1:56 PM 78.1 °F 37.9 °F 24% 29.85 in 10.0 mi West 32.2 mph 41.4 mph N/A   Clear
2:56 PM 75.0 °F 37.9 °F 26% 29.85 in 10.0 mi West 35.7 mph 43.7 mph N/A   Clear
3:56 PM 75.0 °F 39.9 °F 28% 29.83 in 10.0 mi West 39.1 mph 43.7 mph N/A   Clear
4:56 PM 73.9 °F 39.9 °F 29% 29.84 in 10.0 mi West 32.2 mph 39.1 mph N/A   Clear
5:56 PM 68.0 °F 39.0 °F 35% 29.86 in 10.0 mi West 27.6 mph 42.6 mph N/A   Clear
6:56 PM 66.0 °F 39.9 °F 38% 29.85 in 10.0 mi West 27.6 mph 36.8 mph N/A   Clear
7:56 PM 64.9 °F 39.9 °F 40% 29.87 in 10.0 mi West 31.1 mph 35.7 mph N/A   Clear
8:56 PM 63.0 °F 39.0 °F 41% 29.88 in 10.0 mi West 25.3 mph 33.4 mph N/A   Clear
9:56 PM 62.1 °F 37.9 °F 41% 29.89 in 10.0 mi West 17.3 mph - N/A   Clear
10:56 PM 61.0 °F 37.9 °F 42% 29.89 in 10.0 mi West 21.9 mph - N/A   Clear
11:56 PM 60.1 °F 39.9 °F 47% 29.87 in 10.0 mi West 24.2 mph - N/A   Clear